FW0606 Weather Reports


time (UTC)temp
C
wind
direction
speed
KPH
gust
KPH
rain 1hr
cm
rain 24hr
cm
rain mn
cm
humidity
%
barometer
mb
20260906225535 37 0 0.0 0.0 0.00 0.00 0.00 42 1011.9
20260906225035 37 0 0.0 0.0 0.00 0.00 0.00 40 1011.9
20260906224552 37 0 0.0 0.0 0.00 0.00 0.00 41 1012.0
20260906224035 37 0 0.0 0.0 0.00 0.00 0.00 41 1012.1
20260906223535 37 0 0.0 0.0 0.00 0.00 0.00 42 1012.1
20260906223101 37 0 0.0 0.0 0.00 0.00 0.00 41 1012.1
20260906222535 37 0 0.0 0.0 0.00 0.00 0.00 42 1012.2
20260906222036 37 0 0.0 0.0 0.00 0.00 0.00 43 1012.1
20260906221604 37 0 0.0 0.0 0.00 0.00 0.00 42 1012.3
20260906221035 37 0 0.0 0.0 0.00 0.00 0.00 41 1012.2
20260906220536 37 0 0.0 0.0 0.00 0.00 0.00 42 1012.2
20260906220058 37 0 0.0 0.0 0.00 0.00 0.00 43 1012.2
20260906215537 37 0 0.0 0.0 0.00 0.00 0.00 43 1012.2
20260906215038 37 0 0.0 0.0 0.00 0.00 0.00 42 1012.3
20260906214557 37 0 0.0 0.0 0.00 0.00 0.00 44 1012.3
20260906214035 37 0 0.0 0.0 0.00 0.00 0.00 44 1012.4
20260906213536 37 0 0.0 0.0 0.00 0.00 0.00 43 1012.5
20260906213057 37 0 0.0 0.0 0.00 0.00 0.00 45 1012.3
20260906212534 37 0 0.0 0.0 0.00 0.00 0.00 44 1012.5
20260906212035 37 0 0.0 0.0 0.00 0.00 0.00 43 1012.8
20260906211558 37 0 0.0 0.0 0.00 0.00 0.00 45 1012.9
20260906211034 37 0 0.0 0.0 0.00 0.00 0.00 44 1012.9
20260906210536 37 0 0.0 0.0 0.00 0.00 0.00 44 1013.0
20260906210051 37 0 0.0 0.0 0.00 0.00 0.00 44 1013.1
20260906205535 37 0 0.0 0.0 0.00 0.00 0.00 43 1013.1
20260906205034 37 0 0.0 0.0 0.00 0.00 0.00 44 1013.2
20260906204621 37 0 0.0 0.0 0.00 0.00 0.00 44 1013.2
20260906204035 37 0 0.0 0.0 0.00 0.00 0.00 44 1013.2
20260906203535 37 0 0.0 0.0 0.00 0.00 0.00 43 1013.2
20260906203057 37 0 0.0 0.0 0.00 0.00 0.00 44 1013.3
20260906202535 37 0 0.0 0.0 0.00 0.00 0.00 44 1013.2
20260906202035 37 0 0.0 0.0 0.00 0.00 0.00 44 1013.3
20260906201624 37 0 0.0 0.0 0.00 0.00 0.00 44 1013.3
20260906201036 37 0 0.0 0.0 0.00 0.00 0.00 45 1013.4
20260906200536 37 0 0.0 0.0 0.00 0.00 0.00 45 1013.4
20260906200052 36 0 0.0 0.0 0.00 0.00 0.00 45 1013.4
20260906195535 36 0 0.0 0.0 0.00 0.00 0.00 46 1013.6
20260906195035 37 0 0.0 0.0 0.00 0.00 0.00 44 1013.6
20260906194602 37 0 0.0 0.0 0.00 0.00 0.00 45 1013.7
20260906194035 37 0 0.0 0.0 0.00 0.00 0.00 45 1014.0
20260906193532 37 0 0.0 0.0 0.00 0.00 0.00 47 1014.0
20260906193107 37 0 0.0 0.0 0.00 0.00 0.00 45 1013.9
20260906192535 37 0 0.0 0.0 0.00 0.00 0.00 45 1014.0
20260906192035 37 0 0.0 0.0 0.00 0.00 0.00 47 1014.1
20260906191605 37 0 0.0 0.0 0.00 0.00 0.00 46 1014.1
20260906191047 36 0 0.0 0.0 0.00 0.00 0.00 46 1014.1
20260906190537 36 0 0.0 0.0 0.00 0.00 0.00 46 1014.1
20260906190058 36 0 0.0 0.0 0.00 0.00 0.00 47 1014.0
20260906185535 36 0 0.0 0.0 0.00 0.00 0.00 46 1014.2
20260906185035 36 0 0.0 0.0 0.00 0.00 0.00 48 1014.2
20260906184559 36 0 0.0 0.0 0.00 0.00 0.00 46 1014.1
20260906184038 36 0 0.0 0.0 0.00 0.00 0.00 49 1014.3
20260906183535 36 0 0.0 0.0 0.00 0.00 0.00 49 1014.3
20260906183103 36 0 0.0 0.0 0.00 0.00 0.00 51 1014.5
20260906182535 36 0 0.0 0.0 0.00 0.00 0.00 50 1014.5
20260906182035 36 0 0.0 0.0 0.00 0.00 0.00 47 1014.6
20260906181602 36 0 0.0 0.0 0.00 0.00 0.00 49 1014.6
20260906181035 36 0 0.0 0.0 0.00 0.00 0.00 51 1014.6
20260906180535 35 0 0.0 0.0 0.00 0.00 0.00 49 1014.8
20260906180101 35 0 0.0 0.0 0.00 0.00 0.00 48 1015.0
20260906175535 35 0 0.0 0.0 0.00 0.00 0.00 49 1015.0
20260906175037 35 0 0.0 0.0 0.00 0.00 0.00 50 1014.9
20260906174609 35 0 0.0 0.0 0.00 0.00 0.00 51 1015.1
20260906174035 35 0 0.0 0.0 0.00 0.00 0.00 50 1015.2
20260906173535 36 0 0.0 0.0 0.00 0.00 0.00 50 1015.3
20260906173059 36 0 0.0 0.0 0.00 0.00 0.00 55 1015.3
20260906172539 35 0 0.0 0.0 0.00 0.00 0.00 52 1015.4
20260906172035 35 0 0.0 0.0 0.00 0.00 0.00 52 1015.4
20260906171600 35 0 0.0 0.0 0.00 0.00 0.00 55 1015.5
20260906171035 35 0 0.0 0.0 0.00 0.00 0.00 53 1015.5
20260906170535 35 0 0.0 0.0 0.00 0.00 0.00 56 1015.6
20260906170100 35 0 0.0 0.0 0.00 0.00 0.00 53 1015.7
20260906165535 35 0 0.0 0.0 0.00 0.00 0.00 55 1015.7
20260906165035 35 0 0.0 0.0 0.00 0.00 0.00 55 1015.8
20260906164557 35 0 0.0 0.0 0.00 0.00 0.00 57 1015.8
20260906164035 35 0 0.0 0.0 0.00 0.00 0.00 56 1015.9
20260906163539 34 0 0.0 0.0 0.00 0.00 0.00 56 1015.9
20260906163058 34 0 0.0 0.0 0.00 0.00 0.00 56 1016.0
20260906162536 35 0 0.0 0.0 0.00 0.00 0.00 56 1016.0
20260906162037 34 0 0.0 0.0 0.00 0.00 0.00 56 1015.8
20260906161601 34 0 0.0 0.0 0.00 0.00 0.00 58 1015.9
20260906161035 34 0 0.0 0.0 0.00 0.00 0.00 57 1015.8
20260906160535 33 0 0.0 0.0 0.00 0.00 0.00 58 1015.8
20260906160054 33 0 0.0 0.0 0.00 0.00 0.00 58 1015.9
20260906155535 33 0 0.0 0.0 0.00 0.00 0.00 61 1015.9
20260906155034 33 0 0.0 0.0 0.00 0.00 0.00 60 1015.9
20260906154601 33 0 0.0 0.0 0.00 0.00 0.00 61 1015.8
20260906154035 33 0 0.0 0.0 0.00 0.00 0.00 61 1015.7
20260906153538 33 0 0.0 0.0 0.00 0.00 0.00 62 1015.8
20260906153125 33 0 0.0 0.0 0.00 0.00 0.00 61 1015.6
20260906152535 33 0 0.0 0.0 0.00 0.00 0.00 64 1015.5
20260906152035 32 0 0.0 0.0 0.00 0.00 0.00 63 1015.5
20260906151556 32 0 0.0 0.0 0.00 0.00 0.00 65 1015.4
20260906151035 32 0 0.0 0.0 0.00 0.00 0.00 65 1015.3
20260906150535 32 0 0.0 0.0 0.00 0.00 0.00 67 1015.2
20260906150100 32 0 0.0 0.0 0.00 0.00 0.00 68 1015.3
20260906145535 32 0 0.0 0.0 0.00 0.00 0.00 68 1015.3
20260906145035 32 0 0.0 0.0 0.00 0.00 0.00 67 1015.2
20260906144605 31 0 0.0 0.0 0.00 0.00 0.00 69 1015.3
20260906144034 31 0 0.0 0.0 0.00 0.00 0.00 69 1015.3
20260906143536 31 0 0.0 0.0 0.00 0.00 0.00 70 1015.2
20260906143102 31 0 0.0 0.0 0.00 0.00 0.00 71 1015.2
20260906142535 30 0 0.0 0.0 0.00 0.00 0.00 72 1015.2
20260906142038 30 0 0.0 0.0 0.00 0.00 0.00 72 1015.3
20260906141601 30 0 0.0 0.0 0.00 0.00 0.00 73 1015.5
20260906141035 29 0 0.0 0.0 0.00 0.00 0.00 74 1015.5
20260906140534 29 0 0.0 0.0 0.00 0.00 0.00 75 1015.4
20260906140107 29 0 0.0 0.0 0.00 0.00 0.00 76 1015.5
20260906135536 28 0 0.0 0.0 0.00 0.00 0.00 77 1015.5
20260906135035 28 0 0.0 0.0 0.00 0.00 0.00 78 1015.5
20260906134624 28 0 0.0 0.0 0.00 0.00 0.00 79 1015.5
20260906134036 27 0 0.0 0.0 0.00 0.00 0.00 81 1015.5
20260906133534 27 0 0.0 0.0 0.00 0.00 0.00 81 1015.5
20260906133103 27 0 0.0 0.0 0.00 0.00 0.00 82 1015.6
20260906132536 27 0 0.0 0.0 0.00 0.00 0.00 83 1015.6
20260906132035 27 0 0.0 0.0 0.00 0.00 0.00 83 1015.4
20260906131557 27 0 0.0 0.0 0.00 0.00 0.00 84 1015.5
20260906131035 26 0 0.0 0.0 0.00 0.00 0.00 84 1015.4
20260906130535 26 0 0.0 0.0 0.00 0.00 0.00 84 1015.4
20260906130104 26 0 0.0 0.0 0.00 0.00 0.00 84 1015.3
20260906125535 26 0 0.0 0.0 0.00 0.00 0.00 84 1015.3
20260906125035 26 0 0.0 0.0 0.00 0.00 0.00 84 1015.3
20260906124551 25 0 0.0 0.0 0.00 0.00 0.00 84 1015.2
20260906124035 25 0 0.0 0.0 0.00 0.00 0.00 83 1015.2
20260906123535 25 0 0.0 0.0 0.00 0.00 0.00 83 1015.1
20260906123058 25 0 0.0 0.0 0.00 0.00 0.00 83 1015.1
20260906122536 25 0 0.0 0.0 0.00 0.00 0.00 83 1015.1
20260906122035 25 0 0.0 0.0 0.00 0.00 0.00 82 1015.0
20260906121605 25 0 0.0 0.0 0.00 0.00 0.00 82 1015.0
20260906121036 25 0 0.0 0.0 0.00 0.00 0.00 82 1014.9
20260906120535 25 0 0.0 0.0 0.00 0.00 0.00 82 1014.9
20260906120107 25 0 0.0 0.0 0.00 0.00 0.00 82 1014.9
20260906115538 26 0 0.0 0.0 0.00 0.00 0.00 82 1014.7
20260906115034 26 0 0.0 0.0 0.00 0.00 0.00 81 1014.7
20260906114558 26 0 0.0 0.0 0.00 0.00 0.00 81 1014.8
20260906114036 26 0 0.0 0.0 0.00 0.00 0.00 81 1014.7
20260906113535 26 0 0.0 0.0 0.00 0.00 0.00 81 1014.7
20260906113057 26 0 0.0 0.0 0.00 0.00 0.00 81 1014.6
20260906112535 26 0 0.0 0.0 0.00 0.00 0.00 80 1014.5
20260906112036 26 0 0.0 0.0 0.00 0.00 0.00 80 1014.4
20260906111621 26 0 0.0 0.0 0.00 0.00 0.00 80 1014.4
20260906111035 26 0 0.0 0.0 0.00 0.00 0.00 79 1014.4
20260906110536 26 0 0.0 0.0 0.00 0.00 0.00 79 1014.3
20260906110057 26 0 0.0 0.0 0.00 0.00 0.00 79 1014.2
20260906105536 26 0 0.0 0.0 0.00 0.00 0.00 79 1014.2
20260906105034 26 0 0.0 0.0 0.00 0.00 0.00 79 1014.2
20260906104551 26 0 0.0 0.0 0.00 0.00 0.00 79 1014.0
20260906104037 26 0 0.0 0.0 0.00 0.00 0.00 79 1014.1
20260906103534 26 0 0.0 0.0 0.00 0.00 0.00 78 1014.0
20260906103049 26 0 0.0 0.0 0.00 0.00 0.00 78 1014.1
20260906102535 26 0 0.0 0.0 0.00 0.00 0.00 78 1014.0
20260906102036 26 0 0.0 0.0 0.00 0.00 0.00 78 1014.1
20260906101600 26 0 0.0 0.0 0.00 0.00 0.00 78 1014.0
20260906101035 26 0 0.0 0.0 0.00 0.00 0.00 77 1014.0
20260906100536 26 0 0.0 0.0 0.00 0.00 0.00 77 1013.9
20260906100057 26 0 0.0 0.0 0.00 0.00 0.00 78 1014.0
20260906095539 26 0 0.0 0.0 0.00 0.00 0.00 77 1013.9
20260906095035 26 0 0.0 0.0 0.00 0.00 0.00 77 1013.8
20260906094551 27 0 0.0 0.0 0.00 0.00 0.00 77 1013.8
20260906094035 27 0 0.0 0.0 0.00 0.00 0.00 77 1013.8
20260906093535 27 0 0.0 0.0 0.00 0.00 0.00 77 1013.8
20260906093104 27 0 0.0 0.0 0.00 0.00 0.00 77 1013.6
20260906092536 27 0 0.0 0.0 0.00 0.00 0.00 77 1013.6
20260906092036 27 0 0.0 0.0 0.00 0.00 0.00 76 1013.5
20260906091557 27 0 0.0 0.0 0.00 0.00 0.00 76 1013.5
20260906091036 27 0 0.0 0.0 0.00 0.00 0.00 76 1013.5
20260906090538 27 0 0.0 0.0 0.00 0.00 0.00 76 1013.5
20260906090113 27 0 0.0 0.0 0.00 0.00 0.00 76 1013.4
20260906085535 27 0 0.0 0.0 0.00 0.00 0.00 76 1013.4
20260906085033 27 0 0.0 0.0 0.00 0.00 0.00 76 1013.5
20260906084611 27 0 0.0 0.0 0.00 0.00 0.00 76 1013.5
20260906084035 27 0 0.0 0.0 0.00 0.00 0.00 76 1013.5
20260906083535 27 0 0.0 0.0 0.00 0.00 0.00 76 1013.4
20260906083057 27 0 0.0 0.0 0.00 0.00 0.00 76 1013.5
20260906082536 27 0 0.0 0.0 0.00 0.00 0.00 75 1013.4
20260906082037 27 0 0.0 0.0 0.00 0.00 0.00 75 1013.4
20260906081604 27 0 0.0 0.0 0.00 0.00 0.00 75 1013.3
20260906081036 27 0 0.0 0.0 0.00 0.00 0.00 75 1013.2
20260906080536 27 0 0.0 0.0 0.00 0.00 0.00 75 1013.2
20260906080100 27 0 0.0 0.0 0.00 0.00 0.00 75 1013.1
20260906075535 27 0 0.0 0.0 0.00 0.00 0.00 75 1013.3
20260906075037 27 0 0.0 0.0 0.00 0.00 0.00 74 1013.4
20260906074606 27 0 0.0 0.0 0.00 0.00 0.00 74 1013.4
20260906074035 27 0 0.0 0.0 0.00 0.00 0.00 74 1013.5
20260906073537 27 0 0.0 0.0 0.00 0.00 0.00 73 1013.5
20260906073107 27 0 0.0 0.0 0.00 0.00 0.00 73 1013.5
20260906072536 28 0 0.0 0.0 0.00 0.00 0.00 73 1013.7
20260906072035 28 0 0.0 0.0 0.00 0.00 0.00 73 1013.8
20260906071557 28 0 0.0 0.0 0.00 0.00 0.00 72 1013.7
20260906071036 28 0 0.0 0.0 0.00 0.00 0.00 72 1013.8
20260906070536 28 0 0.0 0.0 0.00 0.00 0.00 72 1013.8
20260906070125 28 0 0.0 0.0 0.00 0.00 0.00 72 1013.8
20260906065538 28 0 0.0 0.0 0.00 0.00 0.00 72 1013.9
20260906065036 28 0 0.0 0.0 0.00 0.00 0.00 71 1013.8
20260906064556 28 0 0.0 0.0 0.00 0.00 0.00 71 1013.7
20260906064035 28 0 0.0 0.0 0.00 0.00 0.00 71 1013.7
20260906063536 28 0 0.0 0.0 0.00 0.00 0.00 70 1013.8
20260906063051 28 0 0.0 0.0 0.00 0.00 0.00 70 1013.8
20260906062535 28 0 0.0 0.0 0.00 0.00 0.00 70 1013.7
20260906062035 28 0 0.0 0.0 0.00 0.00 0.00 69 1013.7
20260906061635 28 0 0.0 0.0 0.00 0.00 0.00 69 1013.5
20260906061035 28 0 0.0 0.0 0.00 0.00 0.00 68 1013.6
20260906060536 28 0 0.0 0.0 0.00 0.00 0.00 67 1013.5
20260906060100 28 0 0.0 0.0 0.00 0.00 0.00 67 1013.5
20260906055535 28 0 0.0 0.0 0.00 0.00 0.00 68 1013.7
20260906055035 28 0 0.0 0.0 0.00 0.00 0.00 68 1013.7
20260906054557 28 0 0.0 0.0 0.00 0.00 0.00 68 1013.9
20260906054035 29 0 0.0 0.0 0.00 0.00 0.00 68 1013.8
20260906053535 29 0 0.0 0.0 0.00 0.00 0.00 67 1013.7
20260906053058 29 0 0.0 0.0 0.00 0.00 0.00 67 1013.8
20260906052536 29 0 0.0 0.0 0.00 0.00 0.00 67 1013.9
20260906052036 29 0 0.0 0.0 0.00 0.00 0.00 66 1014.1
20260906051554 29 0 0.0 0.0 0.00 0.00 0.00 66 1013.9
20260906051038 29 0 0.0 0.0 0.00 0.00 0.00 66 1013.9
20260906050535 29 0 0.0 0.0 0.00 0.00 0.00 66 1013.9
20260906050110 29 0 0.0 0.0 0.00 0.00 0.00 66 1013.8
20260906045538 29 0 0.0 0.0 0.00 0.00 0.00 66 1013.8
20260906045035 29 0 0.0 0.0 0.00 0.00 0.00 65 1013.7
20260906044553 30 0 0.0 0.0 0.00 0.00 0.00 65 1013.8
20260906044034 30 0 0.0 0.0 0.00 0.00 0.00 65 1013.7
20260906043536 30 0 0.0 0.0 0.00 0.00 0.00 65 1013.7
20260906043109 30 0 0.0 0.0 0.00 0.00 0.00 64 1013.7
20260906042534 30 0 0.0 0.0 0.00 0.00 0.00 63 1013.8
20260906042035 30 0 0.0 0.0 0.00 0.00 0.00 63 1013.6
20260906041557 30 0 0.0 0.0 0.00 0.00 0.00 63 1013.7
20260906041034 30 0 0.0 0.0 0.00 0.00 0.00 63 1013.6
20260906040535 30 0 0.0 0.0 0.00 0.00 0.00 62 1013.7
20260906040115 30 0 0.0 0.0 0.00 0.00 0.00 62 1013.6
20260906035536 30 0 0.0 0.0 0.00 0.00 0.00 62 1013.6
20260906035038 30 0 0.0 0.0 0.00 0.00 0.00 62 1013.7
20260906034553 30 0 0.0 0.0 0.00 0.00 0.00 61 1013.8
20260906034042 30 0 0.0 0.0 0.00 0.00 0.00 61 1013.8
20260906033536 31 0 0.0 0.0 0.00 0.00 0.00 61 1013.8
20260906033102 31 0 0.0 0.0 0.00 0.00 0.00 61 1013.9
20260906032539 31 0 0.0 0.0 0.00 0.00 0.00 61 1013.8
20260906032036 31 0 0.0 0.0 0.00 0.00 0.00 60 1013.8
20260906031607 31 0 0.0 0.0 0.00 0.00 0.00 60 1013.8
20260906031038 31 0 0.0 0.0 0.00 0.00 0.00 60 1013.9
20260906030536 31 0 0.0 0.0 0.00 0.00 0.00 60 1013.9
20260906030107 31 0 0.0 0.0 0.00 0.00 0.00 59 1013.8
20260906025532 31 0 0.0 0.0 0.00 0.00 0.00 60 1013.7
20260906025033 31 0 0.0 0.0 0.00 0.00 0.00 59 1013.7
20260906024558 31 0 0.0 0.0 0.00 0.00 0.00 59 1013.8
20260906024035 31 0 0.0 0.0 0.00 0.00 0.00 59 1013.7
20260906023538 31 0 0.0 0.0 0.00 0.00 0.00 59 1013.4
20260906023130 32 0 0.0 0.0 0.00 0.00 0.00 59 1013.2
20260906022537 32 0 0.0 0.0 0.00 0.00 0.00 58 1013.2
20260906022036 32 0 0.0 0.0 0.00 0.00 0.00 58 1013.2
20260906021558 32 0 0.0 0.0 0.00 0.00 0.00 57 1013.0
20260906021035 32 0 0.0 0.0 0.00 0.00 0.00 56 1012.9
20260906020536 33 0 0.0 0.0 0.00 0.00 0.00 55 1013.2
20260906020056 33 0 0.0 0.0 0.00 0.00 0.00 54 1013.1
20260906015535 33 0 0.0 0.0 0.00 0.00 0.00 53 1013.0
20260906015035 33 0 0.0 0.0 0.00 0.00 0.00 52 1012.7
20260906014623 33 0 0.0 0.0 0.00 0.00 0.00 50 1012.8
20260906014037 33 0 0.0 0.0 0.00 0.00 0.00 49 1012.7
20260906013540 33 0 0.0 0.0 0.00 0.00 0.00 48 1012.5
20260906013101 34 0 0.0 0.0 0.00 0.00 0.00 48 1012.5
20260906012535 34 0 0.0 0.0 0.00 0.00 0.00 48 1012.2
20260906012035 34 0 0.0 0.0 0.00 0.00 0.00 47 1012.4
20260906011601 34 0 0.0 0.0 0.00 0.00 0.00 47 1012.2
20260906011033 34 0 0.0 0.0 0.00 0.00 0.00 47 1012.2
20260906010535 34 0 0.0 0.0 0.00 0.00 0.00 46 1012.1
20260906010057 34 0 0.0 0.0 0.00 0.00 0.00 46 1012.1
20260906005535 34 0 0.0 0.0 0.00 0.00 0.00 46 1012.1
20260906005036 35 0 0.0 0.0 0.00 0.00 0.00 46 1012.1
20260906004609 35 0 0.0 0.0 0.00 0.00 0.00 45 1012.1
20260906004034 35 0 0.0 0.0 0.00 0.00 0.00 44 1012.0
20260906003539 35 0 0.0 0.0 0.00 0.00 0.00 44 1012.0
20260906003059 35 0 0.0 0.0 0.00 0.00 0.00 44 1011.9
20260906002535 35 0 0.0 0.0 0.00 0.00 0.00 43 1012.0
20260906002034 35 0 0.0 0.0 0.00 0.00 0.00 43 1011.9
20260906001557 36 0 0.0 0.0 0.00 0.00 0.00 43 1011.9
20260906001039 36 0 0.0 0.0 0.00 0.00 0.00 42 1011.9
20260906000537 36 0 0.0 0.0 0.00 0.00 0.00 42 1011.9
20260906000110 36 0 0.0 0.0 0.00 0.00 0.00 43 1011.8
20260905235535 36 0 0.0 0.0 0.00 0.00 0.00 43 1011.9
20260905235035 36 0 0.0 0.0 0.00 0.00 0.00 42 1011.9
20260905234602 36 0 0.0 0.0 0.00 0.00 0.00 42 1011.6
20260905234035 36 0 0.0 0.0 0.00 0.00 0.00 42 1011.5
20260905233536 36 0 0.0 0.0 0.00 0.00 0.00 42 1011.7
20260905233059 36 0 0.0 0.0 0.00 0.00 0.00 42 1011.5
20260905232532 37 0 0.0 0.0 0.00 0.00 0.00 41 1011.6
20260905232036 37 0 0.0 0.0 0.00 0.00 0.00 42 1011.6
20260905231556 37 0 0.0 0.0 0.00 0.00 0.00 41 1011.6
20260905231032 37 0 0.0 0.0 0.00 0.00 0.00 41 1011.6
20260905230535 37 0 0.0 0.0 0.00 0.00 0.00 41 1011.6
20260905230108 37 0 0.0 0.0 0.00 0.00 0.00 42 1011.6